Vorticity
nan nan nan nan nan nan nan nan nan nan nan nan nan nan nan nan nan nan nan nan nan nan nan nan nan nan nan nan nan nan nan nan nan nan nan nan nan nan nan nan nan nan nan nan nan nan nan nan nan nan nan nan nan nan nan nan nan nan nan nan nan nan nan nan nan nan nan nan nan nan nan nan nan nan nan nan nan nan nan nan nan nan nan nan nan nan
nan 7 7 8 9 7 7 8 10 10 9 8 8 8 7 9 11 12 14 14 14 14 13 11 9 8 7 10 11 13 15 13 10 6 4 3 4 7 10 13 14 15 14 12 10 9 7 7 7 7 7 9 10 10 11 11 11 11 11 11 12 12 12 13 13 13 13 12 12 12 12 12 13 13 13 13 14 13 12 10 9 9 9 10 11 nan
nan 10 9 10 10 9 8 9 12 12 11 10 9 7 8 11 13 13 12 13 14 13 11 8 6 7 9 12 14 14 11 7 4 3 3 5 7 10 12 14 13 13 11 10 9 8 8 8 8 9 10 11 11 11 11 10 10 10 11 11 12 12 13 14 14 14 13 12 11 11 11 12 13 14 15 15 14 13 11 8 8 9 10 12 13 nan
nan 9 9 11 11 10 9 10 12 13 13 11 10 10 12 15 14 12 10 10 10 10 8 6 6 9 14 16 14 11 6 4 3 4 5 8 9 11 12 12 12 11 10 10 9 9 9 10 10 10 11 11 11 10 10 9 9 10 11 12 12 13 13 14 14 14 13 12 11 11 11 11 12 13 14 14 13 11 9 8 8 9 11 12 12 nan
nan 8 9 11 12 13 13 12 12 13 13 14 13 14 15 15 13 11 9 8 8 8 9 9 10 12 13 12 8 4 4 5 5 6 8 10 11 11 12 11 11 10 10 11 10 10 10 10 11 11 11 11 10 9 9 9 9 10 10 11 12 13 14 14 14 14 13 12 11 11 11 11 11 11 12 12 11 9 8 8 8 9 11 10 10 nan
nan 10 11 12 12 12 13 13 12 13 15 16 15 15 14 13 10 8 7 8 10 11 11 11 12 13 11 6 3 3 7 9 10 11 12 13 12 12 12 12 11 11 11 11 11 11 10 10 10 10 10 10 10 9 8 8 9 9 10 11 12 12 13 13 13 12 12 12 11 11 11 11 10 10 10 10 10 9 9 9 10 10 10 10 10 nan
nan 10 11 10 10 10 10 11 13 15 16 15 13 13 11 9 7 7 7 9 10 11 10 10 11 12 11 7 6 9 15 17 19 20 20 19 18 17 15 13 12 11 11 11 11 11 11 11 11 11 11 10 9 9 8 7 7 7 9 10 11 12 12 12 11 11 11 11 12 12 12 12 11 10 10 10 10 10 10 10 11 12 11 11 11 nan
nan 8 8 7 8 9 10 13 15 16 13 10 8 8 8 7 7 8 9 8 8 8 9 10 11 11 10 9 11 15 17 19 21 22 22 25 25 22 17 15 13 12 11 12 12 12 12 12 12 12 11 10 9 8 6 5 6 7 8 10 11 11 11 11 11 10 10 11 11 12 13 13 13 12 12 12 11 12 12 13 13 13 13 13 13 nan
nan 8 8 9 10 12 14 16 14 12 8 6 6 6 8 7 8 8 7 6 8 8 9 10 10 10 9 10 12 13 12 12 10 8 9 13 12 10 10 12 14 15 14 14 14 14 14 14 13 13 11 10 8 6 5 5 6 8 9 11 12 12 12 11 11 11 11 11 11 12 12 13 13 13 14 13 13 14 14 15 15 15 14 13 13 nan
nan 10 12 16 18 17 15 12 10 8 7 7 8 8 7 6 7 6 5 7 9 9 10 9 10 11 11 12 12 11 11 10 8 5 6 4 0 1 5 10 13 14 14 16 17 17 17 15 14 12 11 9 7 6 6 7 9 11 12 13 13 13 12 12 12 12 11 11 11 11 11 12 13 14 14 14 14 14 15 16 16 15 13 12 12 nan
nan 16 20 20 19 15 10 7 7 8 10 10 9 8 5 5 6 6 6 9 9 9 9 10 11 11 11 12 11 11 13 14 16 19 21 17 16 18 19 19 19 18 21 22 22 21 18 16 14 12 11 9 8 8 9 11 12 13 14 14 13 13 13 12 12 12 11 11 11 11 11 12 13 14 13 13 13 13 14 15 15 14 12 11 10 nan
nan 21 22 16 11 7 5 6 8 9 9 8 7 6 6 7 8 8 10 10 9 9 11 12 12 11 9 9 10 12 12 13 15 19 24 26 28 30 30 29 28 28 30 30 29 26 20 16 14 13 12 12 11 11 12 13 13 13 13 13 13 12 12 12 12 11 11 11 10 10 11 12 13 13 13 12 12 13 13 14 13 12 10 8 8 nan
nan 17 13 7 5 4 5 7 8 7 6 5 5 6 8 9 9 10 11 9 9 10 12 12 11 11 11 10 10 10 11 13 14 15 16 18 20 22 22 22 22 23 24 24 24 21 17 18 20 20 16 15 14 14 16 15 13 12 12 12 12 12 11 11 11 11 10 10 9 9 11 11 12 12 12 13 12 12 12 11 10 9 7 6 6 nan
nan 10 5 3 4 6 7 7 6 6 6 7 8 9 9 8 8 9 9 9 11 11 11 10 10 11 13 13 12 11 12 15 16 15 12 13 12 12 11 12 11 10 10 11 11 10 12 19 24 25 24 21 20 20 18 14 12 11 11 11 11 11 11 11 11 10 10 8 7 7 8 9 11 12 13 13 12 11 10 9 7 6 5 4 5 nan
nan 9 6 6 7 8 8 8 8 8 8 9 9 10 9 8 9 9 9 10 11 12 13 12 12 13 13 14 14 15 16 16 15 12 11 10 9 9 8 9 7 6 6 7 7 8 13 19 20 20 23 20 16 11 7 7 8 9 9 9 10 10 11 11 10 10 8 5 5 5 6 9 11 12 14 13 11 10 8 6 5 5 5 5 6 nan
nan 11 9 9 9 8 8 8 8 8 9 11 10 10 10 10 11 10 10 11 13 14 14 14 15 17 16 14 15 16 16 14 11 8 7 7 6 5 7 8 7 7 8 8 9 11 16 17 15 14 14 10 5 2 3 4 6 7 8 9 10 11 12 12 10 8 6 4 5 6 8 9 10 11 12 11 10 9 7 6 6 6 7 8 9 nan
nan 8 8 8 8 8 8 8 9 10 11 11 10 9 10 11 11 10 11 13 13 13 11 11 13 15 15 14 14 12 10 7 6 4 5 6 6 7 9 9 9 9 9 9 10 11 13 13 13 11 7 1 1 3 5 6 7 8 9 11 11 12 12 10 8 7 6 7 8 9 10 10 10 10 10 10 10 9 8 8 9 10 11 11 11 nan
nan 6 7 7 8 8 9 11 12 11 10 10 9 9 10 10 10 10 11 12 11 9 8 9 10 9 8 8 7 4 4 5 6 6 9 10 10 10 11 11 10 9 9 10 11 12 12 11 7 1 -7 -7 -2 3 6 8 10 11 12 11 11 10 9 8 8 8 9 10 11 11 11 11 11 11 11 11 10 10 10 11 12 12 13 13 13 nan
nan 6 7 8 9 9 10 11 9 9 9 8 8 9 10 11 12 13 14 13 11 9 9 9 8 7 6 3 -0 -1 5 9 10 11 11 11 10 10 11 12 11 11 11 12 12 12 11 10 6 1 -5 2 6 8 11 12 12 11 10 9 8 8 8 9 9 10 11 12 12 12 12 13 13 13 13 12 12 12 13 13 14 14 14 14 14 nan
nan 8 10 10 11 12 12 11 8 6 4 5 8 11 14 14 14 14 13 10 8 7 7 7 7 7 7 4 3 5 9 13 14 14 13 12 11 11 12 12 12 12 11 11 12 12 12 11 12 15 17 16 15 14 12 9 8 7 6 7 7 8 9 10 11 12 12 12 13 13 13 14 14 14 14 14 14 15 16 15 15 15 14 14 14 nan
nan 10 11 10 10 10 9 7 5 3 5 9 13 16 15 12 10 8 6 5 5 6 7 8 8 8 7 7 7 9 12 15 14 14 15 12 11 11 12 14 14 13 11 11 12 13 12 12 14 17 19 13 11 8 5 3 3 4 6 7 8 9 10 11 12 12 13 13 13 13 14 14 14 14 14 15 16 18 17 16 15 13 13 12 12 nan
nan 9 7 8 7 6 6 6 7 10 13 15 14 12 10 7 5 5 5 7 8 9 10 10 9 8 7 10 11 11 13 13 11 11 12 9 10 11 13 13 13 11 10 12 12 13 12 13 13 12 8 1 0 0 0 2 4 6 8 9 10 10 11 11 11 12 12 12 12 12 13 13 13 13 14 16 17 17 16 14 12 12 11 10 10 nan
nan 7 7 9 9 9 11 12 14 15 15 12 9 7 6 4 5 7 9 11 11 12 11 11 10 11 12 12 12 12 12 10 11 12 10 10 10 11 11 10 9 8 9 10 11 12 12 12 10 8 6 2 2 3 5 7 8 9 9 9 10 10 10 11 11 11 11 11 11 11 11 11 12 13 15 15 15 14 12 10 9 9 9 9 10 nan
nan 8 10 10 9 8 7 6 4 3 4 5 7 7 5 4 6 9 11 12 12 12 12 12 12 14 15 12 11 11 11 11 12 13 11 12 11 9 8 9 8 9 10 11 11 11 12 10 8 8 10 11 11 8 9 9 9 10 10 10 10 10 10 11 11 10 10 9 9 9 10 11 12 14 14 13 11 9 8 8 8 9 9 10 10 nan
nan 4 4 -0 -5 -9 -11 -13 -13 -11 -7 1 5 7 6 8 11 14 14 13 13 12 12 11 11 12 12 12 12 12 12 12 13 13 11 11 10 9 9 11 11 11 12 12 12 11 10 9 9 10 10 15 15 14 13 12 11 10 10 10 10 11 11 11 11 10 9 9 9 10 11 13 13 13 12 10 8 6 7 8 9 9 10 10 11 nan
nan -4 -9 -13 -14 -14 -12 -9 -8 -7 -4 2 3 4 6 12 16 17 14 13 12 12 11 10 10 10 9 10 11 12 11 13 14 12 9 8 8 11 12 12 12 12 12 11 10 9 7 8 9 11 11 15 19 21 16 14 13 11 11 11 11 11 11 11 11 10 9 9 10 11 12 13 12 10 9 8 7 7 8 9 9 10 11 13 17 nan
nan -0 -2 -2 0 3 6 7 6 6 8 7 3 2 7 15 16 14 12 11 11 10 9 9 10 11 11 10 10 9 8 11 12 11 10 9 11 13 12 10 10 10 10 10 9 8 7 10 12 13 13 15 19 23 22 19 16 15 14 13 12 12 11 11 11 10 9 10 11 11 12 12 10 9 8 9 9 10 10 11 11 13 15 21 28 nan
nan 10 9 10 11 11 13 14 15 16 15 11 8 11 19 21 16 13 11 10 10 10 9 8 10 11 11 10 9 8 9 11 10 11 12 12 12 11 9 8 9 10 12 13 12 12 15 16 16 16 16 13 15 20 27 25 24 22 20 16 14 13 13 12 11 11 11 11 12 12 12 11 11 11 11 11 12 12 12 12 13 18 26 30 31 nan
nan 14 15 15 16 17 20 23 22 19 16 14 16 22 27 23 16 12 10 10 10 10 9 9 9 10 9 10 10 11 12 12 12 12 13 12 11 8 7 8 8 10 14 15 17 19 21 19 17 16 15 13 14 17 24 27 29 28 27 22 21 20 18 16 14 13 12 13 13 13 13 13 13 13 12 12 12 12 12 11 15 23 34 31 25 nan
nan 17 20 21 23 26 28 28 24 20 17 18 21 26 27 21 15 11 10 11 11 11 10 9 10 10 9 12 13 15 16 13 11 11 12 13 11 8 7 9 9 11 13 14 16 17 17 16 14 12 11 13 13 13 14 18 21 23 24 27 29 28 23 20 18 17 16 16 16 15 15 14 13 12 11 11 11 12 12 12 16 22 27 23 19 nan
nan 16 18 19 22 24 24 21 19 19 21 24 27 29 25 18 13 11 12 12 12 11 10 10 10 9 10 11 12 13 13 9 6 7 10 13 11 9 9 11 11 11 11 10 9 9 12 14 13 11 9 11 11 10 8 10 12 14 16 22 26 26 23 21 20 20 22 20 18 16 14 12 11 10 10 11 12 13 14 14 16 17 16 15 14 nan
nan 13 14 14 16 16 16 16 16 17 20 23 24 23 19 15 12 11 12 12 12 11 10 9 10 10 10 9 7 7 6 4 2 4 9 12 11 10 10 10 10 11 11 8 5 5 8 9 9 9 10 11 11 11 11 11 12 13 13 16 18 19 18 20 22 23 24 22 20 18 16 14 13 14 14 14 15 16 16 17 16 12 7 11 13 nan
nan 12 11 12 13 13 13 13 12 13 14 15 15 15 15 14 13 12 12 11 11 10 10 10 10 11 11 11 9 7 4 2 1 4 10 13 12 10 9 8 9 10 10 11 10 9 7 3 4 7 11 12 12 12 13 14 14 14 15 14 14 14 17 20 22 21 19 21 23 24 24 24 24 22 21 20 20 20 19 19 16 9 -1 4 10 nan
nan 11 11 12 13 13 12 11 11 11 11 11 11 11 12 13 13 13 12 11 11 10 10 10 10 10 11 12 12 9 6 4 3 5 12 14 11 8 7 9 10 10 11 12 12 12 9 4 3 5 10 11 12 12 13 14 15 15 14 12 11 11 14 16 16 16 15 19 22 24 27 30 30 29 28 26 24 22 20 20 17 11 -1 -6 -1 nan
nan 13 13 14 13 12 11 11 11 11 11 11 11 11 11 11 12 12 12 11 10 10 9 9 9 9 9 9 9 8 7 5 4 7 11 13 10 8 10 10 10 10 10 10 10 11 10 7 6 5 5 8 11 13 13 12 12 12 10 9 9 9 11 11 11 12 14 16 16 17 20 22 24 26 26 22 19 17 16 16 16 14 9 -3 -8 nan
nan 13 13 13 12 11 10 11 11 11 12 12 12 11 10 10 10 10 11 10 10 9 9 8 8 8 6 6 6 6 6 5 5 7 10 11 9 8 9 9 8 8 9 10 9 9 7 8 8 8 8 10 12 13 11 9 9 9 8 9 10 10 10 10 10 11 13 13 13 13 13 13 15 16 17 14 13 14 15 16 17 18 16 10 1 nan
nan 12 12 12 11 10 11 12 12 12 12 12 11 10 9 9 8 8 10 10 9 9 10 11 11 9 4 2 2 2 2 1 2 4 6 8 9 9 7 6 7 9 10 9 9 8 7 8 10 13 14 13 10 6 4 6 9 10 9 10 11 12 12 12 13 13 12 11 10 9 8 10 11 12 13 17 22 26 28 30 30 28 25 24 19 nan
nan 11 11 10 10 10 11 11 11 11 11 10 9 9 9 8 8 9 11 11 11 10 11 12 13 12 9 5 3 1 -0 -0 1 4 8 9 10 10 7 6 8 10 10 9 8 8 8 10 12 14 15 11 6 3 4 8 10 10 11 12 12 13 14 15 15 14 12 11 10 8 9 11 12 13 15 22 26 30 33 36 36 35 35 38 36 nan
nan 9 9 9 10 11 11 10 10 10 10 9 8 8 9 10 12 13 13 13 13 13 11 10 11 13 16 16 13 10 9 11 12 13 14 13 12 10 8 8 10 11 11 11 10 10 11 11 11 9 8 8 8 10 12 11 10 9 9 13 16 17 15 13 13 12 12 12 11 12 15 16 14 13 14 17 18 18 20 23 26 30 32 35 40 nan
nan 9 9 10 11 11 9 9 10 10 10 10 10 12 13 15 16 16 15 14 14 14 14 14 14 14 17 18 19 19 17 17 16 16 17 14 11 8 9 9 10 11 12 13 12 12 12 10 7 5 6 8 8 9 10 9 6 4 7 13 14 11 9 10 11 13 14 13 13 13 13 13 12 11 12 12 12 13 13 14 16 19 21 20 24 nan
nan 10 11 11 12 11 11 11 10 9 9 11 13 15 14 14 14 13 13 14 14 15 16 17 17 16 16 17 17 18 18 16 15 14 14 12 10 8 9 10 11 11 12 12 11 10 9 7 7 8 11 10 10 10 10 7 5 5 11 12 8 4 6 10 15 18 16 13 12 11 9 10 11 13 14 14 14 14 12 11 10 12 15 15 14 nan
nan 12 12 11 11 11 10 9 9 11 12 14 13 12 12 11 11 10 10 11 12 12 12 13 13 13 14 15 16 17 19 18 17 15 13 14 14 13 11 10 10 10 10 11 10 9 8 8 10 12 12 12 12 12 10 8 10 12 14 10 7 9 17 20 20 16 11 10 10 11 12 14 14 14 14 15 15 15 15 13 11 10 11 13 13 nan
nan 12 11 11 11 10 9 11 13 14 15 13 12 11 11 10 9 8 10 10 10 9 11 12 12 12 13 12 13 15 18 18 17 15 16 16 17 16 13 11 9 9 9 11 11 12 11 12 13 13 12 12 11 10 8 9 11 13 13 9 10 15 16 13 10 8 9 11 12 13 15 14 13 12 13 14 14 16 17 17 18 18 15 14 15 nan
nan 12 11 11 11 11 12 13 13 12 11 11 11 11 10 9 9 10 12 11 10 11 12 13 14 14 12 10 11 12 15 17 18 20 19 16 14 11 11 12 12 11 11 12 12 12 13 15 15 13 13 12 12 10 9 9 10 10 10 10 11 11 5 1 2 6 10 13 13 13 12 11 12 12 14 15 16 16 17 18 19 20 19 16 16 nan
nan 11 11 11 11 10 10 10 10 11 11 11 11 11 10 11 12 13 12 11 11 12 12 12 14 13 11 10 11 12 13 15 17 20 19 15 12 13 15 15 15 14 14 12 11 10 11 12 12 12 13 13 11 10 9 8 9 9 9 10 12 13 9 6 7 10 11 11 12 11 10 11 13 14 15 15 15 15 14 13 14 15 17 16 16 nan
nan 9 10 11 10 9 9 11 11 11 10 10 11 11 11 12 13 12 11 11 12 12 12 12 12 10 7 9 11 12 12 12 13 14 14 14 15 16 15 14 13 12 12 12 12 11 10 9 8 9 11 13 13 13 11 10 10 9 9 10 13 15 15 14 14 13 12 11 10 9 10 15 17 17 14 13 14 14 13 13 12 13 14 15 15 nan
nan 9 10 10 10 10 11 11 11 11 10 10 11 11 12 12 11 11 12 12 13 12 12 12 11 10 8 9 10 10 10 10 11 11 9 10 12 13 14 13 12 12 12 12 13 13 13 11 10 9 9 10 12 13 13 12 10 9 8 10 12 13 14 14 14 14 13 12 9 8 13 18 19 15 12 14 14 14 13 12 12 12 13 14 14 nan
nan 11 11 11 10 10 10 11 11 10 10 11 11 11 11 9 8 10 13 12 13 12 13 12 11 11 11 11 11 10 9 10 11 10 10 11 12 12 13 13 13 14 14 14 16 19 19 18 15 12 10 8 7 8 9 10 10 10 11 11 13 13 13 12 12 13 13 11 9 11 16 18 15 12 13 14 13 12 11 11 12 13 14 14 14 nan
nan 11 11 11 11 10 10 10 10 10 10 10 10 11 10 8 10 16 16 13 13 13 12 11 11 11 12 12 11 10 11 13 13 12 11 12 12 12 11 11 12 14 15 18 20 22 22 24 23 19 12 6 4 4 7 8 9 11 13 14 14 14 13 12 12 12 12 10 10 13 18 18 15 13 13 12 12 10 10 11 12 13 13 14 14 nan
nan 11 11 11 11 10 10 10 9 10 10 10 11 11 11 12 15 16 15 13 13 12 11 11 11 11 11 11 11 10 12 13 12 11 11 12 11 10 10 10 11 12 14 16 16 17 20 23 26 26 19 10 5 4 8 9 10 13 15 16 15 14 13 12 11 11 11 11 12 13 16 17 15 14 14 13 12 11 9 9 11 12 13 14 13 nan
nan nan nan nan nan nan nan nan nan nan nan nan nan nan nan nan nan nan nan nan nan nan nan nan nan nan nan nan nan nan nan nan nan nan nan nan nan nan nan nan nan nan nan nan nan nan nan nan nan nan nan nan nan nan nan nan nan nan nan nan nan nan nan nan nan nan nan nan nan nan nan nan nan nan nan nan nan nan nan nan nan nan nan nan nan nan
CAPE
nan nan nan nan nan nan nan nan nan nan nan nan nan nan nan nan nan nan nan nan nan nan nan nan nan nan 2 79 119 119 144 170 201 201 228 218 204 204 190 194 194 204 228 252 252 263 244 223 223 212 201 189 180 180 177 178 178 185 195 199 199 198 207 227 227 259 301 345 361 361 371 368 350 350 374 358 366 366 366 346 346 346 338 284 284 245
nan nan nan nan nan nan nan nan nan nan nan nan nan nan nan nan nan nan nan nan nan nan nan 0 0 1 nan 22 127 127 167 202 224 224 235 216 198 198 195 203 203 229 252 262 262 244 220 207 207 196 186 184 182 182 178 175 175 174 172 170 170 171 179 203 203 225 250 258 266 266 278 288 294 294 323 348 337 337 327 327 327 356 324 277 277 245
1 0 0 nan nan nan nan nan nan nan nan nan nan nan nan nan nan nan nan nan nan nan 5 6 6 7 nan 24 163 163 191 222 226 226 217 197 195 195 209 220 220 249 248 235 235 217 200 188 188 187 180 181 184 184 186 181 181 165 156 153 153 157 163 180 180 194 204 209 216 216 226 259 272 272 318 338 345 345 327 318 318 347 332 294 294 263
1 0 0 nan nan nan nan nan nan nan nan nan nan nan nan nan nan nan nan 1 1 3 9 4 4 10 5 23 139 139 201 208 203 203 193 185 190 190 202 207 207 214 211 200 200 193 184 180 180 177 174 186 185 185 187 176 176 163 154 155 155 160 164 167 167 187 181 201 226 226 262 297 323 323 345 365 349 349 342 333 333 357 325 304 304 303
3 1 0 nan nan nan nan nan nan nan nan nan nan nan nan nan 0 0 3 2 2 2 3 6 6 8 14 24 90 90 166 175 172 172 173 172 175 175 179 181 181 177 176 173 173 172 168 169 169 169 179 185 189 189 180 164 164 155 160 163 163 171 176 191 191 193 198 227 264 264 270 292 293 293 319 330 330 330 339 326 326 328 298 312 312 353
4 3 0 nan nan nan nan nan nan nan nan nan nan nan nan 1 4 4 0 nan nan nan nan 1 1 4 11 8 66 66 132 146 151 151 149 154 152 152 153 149 149 155 156 157 157 162 157 161 161 164 176 181 187 187 172 160 160 160 164 176 176 188 202 215 215 226 241 238 244 244 234 230 238 238 254 288 303 303 310 295 295 272 277 313 313 360
7 0 nan nan nan nan nan nan nan nan nan nan nan nan nan nan nan nan nan nan nan nan nan 0 0 3 5 17 64 64 102 116 121 121 123 127 127 127 132 144 144 147 150 149 149 151 154 155 155 160 171 177 177 177 167 159 159 158 163 171 171 189 200 213 213 225 214 203 194 194 180 173 189 189 201 231 253 253 251 249 249 248 265 313 313 362
1 nan nan nan nan nan nan nan 5 5 10 1 nan nan nan nan nan nan nan nan nan nan nan nan nan nan nan nan nan nan nan 0 0 0 15 34 72 72 99 122 122 129 136 136 136 138 141 152 152 158 163 162 161 161 155 148 148 144 138 136 136 139 151 153 153 152 148 154 160 160 160 167 162 162 166 175 200 200 220 253 253 287 294 342 342 325
nan nan nan nan nan nan nan 1 7 7 nan nan nan nan nan nan nan nan nan nan nan nan nan nan nan nan nan nan nan nan 8 21 6 6 12 1 2 2 52 93 93 111 125 127 127 134 145 153 153 157 159 152 147 147 146 134 134 126 120 119 119 123 131 140 140 144 155 159 169 169 173 177 189 189 198 203 213 213 225 258 258 291 325 372 372 368
nan nan nan nan nan nan 0 0 nan nan nan nan nan nan nan nan nan nan nan nan nan nan nan nan nan nan nan nan nan nan 3 20 72 72 106 70 105 105 78 63 63 58 108 121 121 134 144 148 148 150 143 137 133 133 121 107 107 99 100 105 105 108 122 134 134 150 160 164 167 167 175 201 221 221 231 240 239 239 270 268 268 293 337 396 396 412
nan nan nan nan nan 1 nan nan nan nan nan nan nan nan nan nan nan nan nan nan nan nan nan nan nan nan nan nan nan nan 1 nan nan nan 24 56 79 79 82 76 76 84 102 113 113 122 122 127 127 126 123 109 101 101 86 80 80 81 87 96 96 105 117 130 130 142 154 163 165 165 185 216 253 253 260 262 299 299 303 291 291 301 348 410 410 417
0 4 12 6 6 nan nan nan nan nan nan nan nan nan nan nan nan nan nan nan nan nan nan nan nan nan 0 0 nan nan nan nan nan nan nan nan nan nan 5 10 10 35 55 76 76 81 96 100 100 99 84 71 78 78 66 54 54 65 75 85 85 95 107 121 121 132 145 162 174 174 206 235 258 258 267 301 296 296 310 294 294 283 340 369 369 399
11 30 15 nan nan nan nan nan nan nan nan nan nan nan nan nan nan nan nan nan nan nan nan nan nan nan 0 nan nan nan nan nan nan nan nan nan nan nan nan nan nan nan nan nan nan nan 34 68 68 72 72 55 59 59 56 49 49 55 67 76 76 88 107 114 114 127 147 170 199 199 246 274 269 269 269 298 287 287 292 293 293 282 305 327 327 355
34 34 5 nan nan nan nan nan nan nan nan nan nan nan nan nan nan nan nan nan nan nan nan nan nan 0 1 nan nan nan nan nan nan nan nan nan nan nan 2 0 0 nan nan nan nan nan 6 18 18 4 38 30 30 30 27 38 38 52 65 80 80 93 110 122 122 143 171 196 232 232 263 270 263 263 256 281 286 286 279 270 270 257 258 277 277 292
17 3 nan nan nan nan nan nan nan nan nan nan nan nan nan nan nan nan nan nan nan nan nan nan nan nan 1 nan nan nan nan 0 nan nan 0 2 1 1 1 nan nan nan nan nan nan nan 2 1 1 nan nan nan 0 0 12 29 29 76 77 99 99 110 127 141 141 179 225 234 226 226 216 226 243 243 252 260 268 268 251 243 243 223 223 232 232 240
3 nan nan nan nan nan nan nan nan nan nan nan nan nan nan nan nan nan nan nan nan nan 0 1 1 2 1 1 2 2 3 4 4 4 6 1 nan nan nan nan nan nan nan nan nan nan nan nan nan nan nan 3 38 38 53 59 59 90 99 114 114 135 171 203 203 210 233 223 192 192 182 198 215 215 233 246 239 239 222 220 220 217 215 223 223 222
nan nan nan nan nan nan nan nan nan nan nan nan nan nan nan nan nan nan nan nan nan 2 3 4 4 4 6 6 5 5 1 0 0 0 1 1 nan nan nan nan nan nan nan nan nan nan nan nan nan nan nan 19 58 58 70 85 85 105 112 136 136 164 210 217 217 187 191 185 177 177 179 189 194 194 202 208 204 204 196 207 207 221 232 240 240 231
nan nan nan nan nan nan nan nan nan nan nan nan nan nan nan nan nan nan 0 3 3 5 7 6 6 8 13 15 2 2 nan nan nan nan 3 2 nan nan nan nan nan nan nan nan nan nan nan nan nan nan nan 60 75 75 83 99 99 133 161 170 170 166 175 172 172 159 158 167 173 173 178 188 183 183 188 185 179 179 183 203 203 231 242 252 252 244
nan nan nan nan nan nan nan nan nan nan nan nan nan nan nan nan 1 1 3 5 5 10 13 11 11 13 13 10 0 0 nan nan 3 3 5 2 nan nan nan nan nan nan nan nan nan nan nan nan nan 0 45 71 90 90 115 136 136 157 168 154 154 143 135 136 136 139 149 155 164 164 172 178 188 188 187 188 193 193 203 215 215 238 242 252 252 239
nan nan nan nan nan nan nan nan nan nan nan nan nan nan nan 2 6 6 11 17 17 15 17 11 11 7 2 nan nan nan 0 3 7 7 4 nan nan nan nan nan nan nan nan nan nan nan nan nan nan nan 49 86 121 121 141 141 141 130 120 114 114 111 118 129 129 134 138 143 147 147 154 173 193 193 207 203 204 204 205 227 227 237 234 221 221 214
nan nan nan nan nan nan nan nan nan nan nan 2 1 1 4 8 10 10 12 9 9 3 1 0 0 0 0 0 1 1 4 7 4 4 0 nan nan nan nan nan nan nan nan nan nan nan nan nan nan nan 36 117 136 136 135 110 110 92 96 100 100 107 113 119 119 123 127 131 142 142 154 167 186 186 209 211 211 211 216 231 231 227 217 209 209 201
nan nan nan nan nan nan nan nan 1 1 14 18 13 13 14 2 nan nan nan nan nan nan 1 2 2 3 1 4 8 8 7 1 nan nan nan nan nan nan nan nan nan nan nan nan nan nan nan nan nan 7 84 129 105 105 83 74 74 71 82 94 94 101 108 109 109 113 117 124 141 141 156 170 184 184 201 214 209 209 220 223 223 209 206 196 196 187
nan nan nan nan nan nan 0 3 18 18 43 29 19 19 3 nan nan nan nan 1 1 3 6 8 8 6 9 17 10 10 nan nan nan nan nan nan nan nan nan nan nan nan nan nan nan nan nan 17 17 14 39 90 61 61 54 57 57 70 81 89 89 92 99 102 102 107 111 130 145 145 159 174 188 188 214 214 200 200 212 209 209 195 192 189 189 201
nan nan nan nan nan 3 14 29 31 31 24 10 0 0 nan nan 2 2 5 7 7 11 9 10 10 11 13 8 nan nan nan nan nan nan nan nan nan nan nan nan nan nan nan nan nan 0 13 7 7 nan 0 46 50 50 52 58 58 69 73 82 82 85 90 94 94 108 125 143 159 159 175 191 219 219 239 231 191 191 199 197 197 193 191 192 192 201
nan nan 6 20 20 49 48 34 27 27 6 nan 2 2 5 19 28 28 15 10 10 11 11 15 15 14 4 8 nan nan nan nan nan nan nan nan nan nan nan nan nan nan nan nan nan 1 3 nan nan nan nan 9 45 45 53 60 60 68 75 79 79 85 94 101 101 120 141 160 177 177 192 220 252 252 248 235 207 207 188 187 187 184 186 184 184 186
26 48 64 98 98 147 147 122 104 104 64 14 3 3 3 11 12 12 5 10 10 10 12 15 15 7 nan nan nan nan nan nan nan nan nan nan nan nan nan nan nan nan 6 4 4 4 nan nan nan nan nan nan 34 34 48 61 61 69 80 84 84 91 100 114 114 139 160 168 185 185 208 243 253 253 250 228 205 205 185 182 182 177 171 166 166 167
146 166 182 175 175 144 121 112 122 122 138 100 26 26 9 5 6 6 10 9 9 11 10 5 5 0 nan nan nan nan nan nan nan nan nan nan nan nan nan nan nan 8 17 4 4 nan nan nan nan nan nan nan 2 2 46 65 65 77 88 97 97 101 110 128 128 154 163 176 186 186 210 239 246 246 238 223 197 197 188 183 183 174 165 156 156 152
151 146 116 97 97 80 81 85 100 100 102 104 120 120 56 7 4 4 5 4 4 6 3 1 1 nan nan nan nan nan nan nan nan nan nan nan nan nan 0 3 3 2 0 nan nan nan 18 7 7 nan nan nan nan nan 29 73 73 88 97 98 98 105 109 121 121 139 153 165 188 188 211 222 219 219 211 206 200 200 209 200 200 192 180 144 144 86
104 76 61 51 51 51 58 63 62 62 67 78 94 94 55 6 3 3 2 3 3 4 1 1 1 0 nan nan nan nan nan nan nan nan nan nan 2 2 0 nan nan nan nan nan nan 1 6 2 2 nan nan nan nan nan 6 61 61 81 88 86 86 89 92 104 104 123 141 157 174 174 193 199 201 201 203 209 214 214 217 218 218 203 174 123 123 82
nan 6 8 15 15 25 27 13 31 31 56 68 81 81 56 8 6 6 4 2 2 0 nan 0 0 nan nan nan nan nan nan nan nan nan nan nan nan nan nan nan nan nan nan nan nan 0 nan nan nan nan nan 1 nan nan nan 3 3 10 31 63 63 61 78 99 99 119 138 152 162 162 172 184 194 194 190 194 193 193 190 194 194 157 92 63 63 58
nan nan nan nan nan nan nan nan 6 6 39 64 67 67 44 3 nan nan nan nan nan nan nan nan nan nan nan nan nan nan nan nan nan nan nan nan nan nan nan nan nan nan nan nan nan nan 0 nan nan 0 nan nan nan nan nan nan nan nan nan 4 4 23 68 96 96 117 132 142 150 150 157 159 166 166 157 148 146 146 145 148 148 118 63 48 48 42
nan nan nan nan nan nan nan nan nan nan nan nan nan nan 7 10 3 3 nan nan nan nan nan nan nan nan nan nan nan nan nan nan 5 5 3 nan nan nan nan nan nan nan nan nan nan nan nan nan nan nan nan nan nan nan nan nan nan nan 0 2 2 0 41 65 65 72 72 95 89 89 81 75 69 69 70 73 81 81 87 89 89 86 50 30 30 35
nan nan nan nan nan nan nan nan nan nan nan nan nan nan nan nan 10 10 3 nan nan nan nan nan nan nan nan nan nan nan nan nan 12 12 22 nan nan nan nan nan nan nan nan nan nan nan nan nan nan nan nan nan nan nan nan 2 2 6 1 0 0 nan 10 20 20 17 24 26 28 28 44 46 48 48 49 53 58 58 64 71 71 77 72 29 29 31
nan nan nan nan nan nan nan nan nan nan nan nan nan nan nan nan nan nan nan nan nan nan nan nan nan nan nan nan nan nan nan nan 15 15 17 nan 0 0 nan nan nan nan nan nan nan nan nan nan nan nan nan nan nan nan 0 0 0 1 nan nan nan nan nan nan nan 1 1 2 nan nan 2 5 25 25 28 36 41 41 46 52 52 67 79 51 51 35
nan nan nan nan nan nan nan nan nan nan nan nan nan nan nan nan nan nan nan nan nan nan nan nan nan nan nan nan nan nan nan nan 6 6 19 nan 0 0 nan nan nan nan nan nan nan nan nan nan nan 4 0 0 0 0 nan nan nan nan nan nan nan nan nan nan nan nan nan nan nan nan nan nan nan nan 7 21 31 31 39 47 47 55 68 83 83 69
nan nan nan nan nan nan nan nan nan nan nan nan nan nan nan nan nan nan nan nan nan nan 1 nan nan nan nan nan nan nan nan nan 3 3 18 nan nan nan nan nan nan nan nan nan nan nan nan nan nan 4 8 2 0 0 nan nan nan nan nan nan nan nan nan nan nan nan nan nan nan nan nan nan nan nan 3 25 33 33 39 43 43 48 59 75 75 86
nan nan nan nan nan nan nan nan nan nan nan nan nan nan nan nan nan nan nan nan nan nan nan 3 3 1 9 nan nan nan nan nan nan nan 1 nan nan nan nan nan nan 0 nan nan nan nan nan nan nan 1 3 1 nan nan nan nan nan nan nan nan nan nan nan nan nan nan nan nan nan nan nan nan 1 1 6 23 24 24 30 37 37 37 45 56 56 73
nan 0 0 nan nan nan nan nan nan nan nan nan nan nan nan nan nan nan nan nan nan nan nan nan nan nan 5 19 1 1 nan nan nan nan nan nan nan nan nan nan nan 0 nan nan nan nan nan 1 1 3 1 nan nan nan nan nan nan nan nan nan nan nan nan nan nan nan nan nan 2 2 5 2 0 0 1 3 3 3 3 5 5 18 31 35 35 50
nan nan nan 0 0 nan nan nan nan nan nan nan nan nan nan nan nan nan nan nan nan nan nan nan nan nan nan nan 3 3 5 nan nan nan nan nan nan nan nan nan nan nan nan 0 0 1 1 2 2 1 nan nan nan nan nan nan nan nan nan nan nan nan nan nan nan nan nan nan 2 2 0 nan nan nan nan nan nan nan 0 1 1 6 10 10 10 25
1 0 nan 1 1 nan nan nan nan nan nan nan nan nan nan nan nan nan nan nan nan nan nan nan nan nan nan nan nan nan nan nan nan nan nan nan nan nan nan nan nan nan 1 2 2 4 5 1 1 nan nan nan nan nan nan nan nan nan nan nan nan nan nan nan nan nan nan nan nan nan nan nan nan nan nan nan nan nan nan nan nan 1 4 1 1 2
3 nan nan nan nan nan nan nan nan nan nan nan nan nan nan nan nan nan nan nan nan nan nan nan nan nan nan nan nan nan nan nan nan nan nan nan nan nan nan nan nan 0 5 8 8 7 3 nan nan nan nan nan nan nan nan nan nan 1 3 nan nan nan nan nan nan nan nan nan nan nan 0 0 1 1 0 1 nan nan nan nan nan nan 1 nan nan 0
8 2 nan nan nan nan nan nan nan nan nan nan nan nan nan nan nan nan nan nan nan nan nan nan nan nan nan nan nan nan nan nan nan nan nan nan nan nan nan 0 0 4 9 11 11 4 0 nan nan nan nan nan nan nan nan nan nan nan nan nan nan nan nan nan nan nan nan nan nan nan 0 0 nan nan nan nan nan nan nan nan nan 1 2 0 0 0
0 nan nan nan nan nan nan nan nan nan nan nan nan nan nan nan nan nan nan nan nan nan nan nan nan nan nan nan nan nan nan nan nan nan nan nan nan nan nan 5 5 15 16 6 6 0 nan 0 0 nan nan nan nan nan nan nan nan nan nan nan nan nan nan nan nan nan nan nan nan nan nan nan nan nan nan nan nan nan nan 1 1 4 5 1 1 1
nan nan nan nan nan nan nan nan nan nan nan nan nan nan nan nan nan nan nan nan nan nan nan nan nan nan nan nan nan nan nan nan nan nan nan 2 1 1 4 7 7 10 4 nan nan nan nan nan nan nan nan nan nan nan nan nan nan nan nan nan nan nan nan nan nan nan nan nan nan nan nan nan nan nan nan nan nan nan nan nan nan nan 1 0 0 nan
nan nan nan nan nan nan nan nan nan nan nan nan nan nan nan nan nan nan nan nan nan nan nan nan nan nan nan nan nan nan nan nan nan nan nan 9 34 34 8 2 2 nan nan nan nan nan nan nan nan nan nan nan nan nan nan nan nan nan nan nan nan nan nan nan nan nan nan nan nan nan nan nan nan nan nan nan nan nan nan nan nan nan 0 0 0 nan
nan nan nan nan nan nan nan nan nan nan nan nan nan nan nan nan nan nan nan nan nan nan nan nan nan nan nan nan nan nan nan nan nan nan nan nan nan nan nan 0 0 nan nan nan nan nan nan nan nan nan nan nan nan nan nan nan nan nan nan nan nan nan nan nan nan nan nan nan nan nan nan nan nan nan nan nan nan nan nan nan nan nan 0 0 0 nan
nan nan nan nan nan nan nan nan nan nan nan nan nan nan nan nan nan nan nan nan nan nan nan nan nan nan nan nan nan nan nan nan nan nan nan nan nan nan nan nan nan nan nan nan nan nan nan nan nan nan nan nan nan nan nan nan nan nan nan nan nan nan nan nan nan nan nan nan nan nan nan nan nan nan nan nan nan nan nan nan nan nan nan nan nan nan
nan nan nan nan nan nan nan nan nan nan nan nan nan nan nan nan nan nan nan nan nan nan nan nan nan nan nan nan nan nan nan nan nan nan nan nan nan nan nan nan nan nan nan nan nan nan nan nan nan nan nan nan nan nan nan nan nan nan nan nan nan nan nan nan nan nan nan nan nan nan nan nan nan nan nan nan nan nan nan nan nan nan nan 0 0 nan
nan nan nan nan nan nan nan nan nan nan nan nan nan nan nan nan 16 16 nan nan nan nan nan nan nan nan nan nan nan nan 0 0 nan nan nan nan nan nan nan nan nan nan nan nan nan nan nan nan nan nan nan nan nan nan nan nan nan nan nan nan nan nan nan nan nan nan nan nan nan nan nan nan nan nan nan nan nan nan nan nan nan nan nan nan nan nan
nan nan nan nan nan nan nan nan nan nan nan nan nan nan nan nan nan nan nan nan nan nan nan nan nan nan nan nan nan nan nan nan nan nan nan nan nan nan nan nan nan nan nan nan nan nan nan nan nan nan nan nan nan nan nan nan nan nan nan nan nan nan nan nan nan nan nan nan nan nan nan nan nan nan nan nan nan nan nan nan nan nan nan nan nan nan
nan nan nan nan nan nan nan nan nan nan nan nan nan nan nan nan nan nan nan nan nan nan nan nan nan nan nan nan nan nan nan nan nan nan nan nan nan nan nan nan nan nan nan nan nan nan nan nan nan nan nan 1 nan nan nan nan nan nan nan nan nan nan nan nan nan nan nan nan nan nan nan nan nan nan nan nan nan nan nan nan nan nan nan nan nan nan